When you browse on this site, cookies collect data to enhance your experience and personalize the content and advertising you see.
Visit our Privacy Policy to learn more. By continuing to use the site, you agree to this use of cookies and data.
  • In Deutschland
  • Länderverzeichnis
  • Für 7 Tage
  • Wassertemperatur
  • Wetterkarte
  • Widgets
  • user-avatar
    Anmelden

    Stündliche Wetter Hrasdan

    Heute, 17 September, Dienstag

    Zeit Temperatur Niederschläge Wind Luftdruck Luftfeuchtigkeit
    00:00 +13°C° 0 mm 1 m/S 613 mmHg 77%
    01:00 +13°C° 0 mm 1 m/S 613 mmHg 74%
    02:00 +13°C° 0 mm 1 m/S 613 mmHg 71%
    03:00 +13°C° 0 mm 2 m/S 613 mmHg 68%
    04:00 +13°C° 0 mm 2 m/S 613 mmHg 68%
    05:00 +12°C° 0 mm 2 m/S 612 mmHg 68%
    06:00 +12°C° 0 mm 2 m/S 612 mmHg 69%
    07:00 +13°C° 0 mm 3 m/S 613 mmHg 62%
    08:00 +16°C° 0 mm 3 m/S 614 mmHg 54%
    09:00 +19°C° 0 mm 4 m/S 615 mmHg 46%
    10:00 +20°C° 0 mm 5 m/S 615 mmHg 44%
    11:00 +20°C° 0 mm 5 m/S 615 mmHg 42%
    12:00 +21°C° 0 mm 6 m/S 615 mmHg 40%
    13:00 +21°C° 0 mm 6 m/S 614 mmHg 39%
    14:00 +21°C° 0 mm 6 m/S 614 mmHg 38%
    15:00 +21°C° 0 mm 5 m/S 614 mmHg 38%
    16:00 +20°C° 0 mm 5 m/S 614 mmHg 42%
    17:00 +19°C° 0 mm 4 m/S 613 mmHg 46%
    18:00 +17°C° 0 mm 3 m/S 613 mmHg 50%
    19:00 +16°C° 0.1 mm 2 m/S 613 mmHg 54%
    20:00 +15°C° 0.1 mm 2 m/S 613 mmHg 58%
    21:00 +14°C° 0.1 mm 2 m/S 613 mmHg 62%
    22:00 +13°C° 0 mm 2 m/S 613 mmHg 62%
    23:00 +13°C° 0 mm 2 m/S 613 mmHg 62%

    Morgen, 18 September, Mittwoch

    Zeit Temperatur Niederschläge Wind Luftdruck Luftfeuchtigkeit
    00:00 +13°C° 0 mm 2 m/S 613 mmHg 62%
    01:00 +13°C° 0 mm 2 m/S 613 mmHg 63%
    02:00 +12°C° 0 mm 2 m/S 613 mmHg 64%
    03:00 +12°C° 0 mm 2 m/S 613 mmHg 64%
    04:00 +12°C° 0 mm 2 m/S 613 mmHg 65%
    05:00 +10°C° 0 mm 2 m/S 614 mmHg 65%
    06:00 +10°C° 0 mm 2 m/S 614 mmHg 65%
    07:00 +13°C° 0 mm 2 m/S 615 mmHg 59%
    08:00 +15°C° 0 mm 2 m/S 616 mmHg 52%
    09:00 +18°C° 0 mm 2 m/S 617 mmHg 46%
    10:00 +19°C° 0 mm 2 m/S 617 mmHg 42%
    11:00 +20°C° 0 mm 2 m/S 618 mmHg 39%
    12:00 +21°C° 0 mm 3 m/S 618 mmHg 36%
    13:00 +21°C° 0 mm 2 m/S 618 mmHg 35%
    14:00 +21°C° 0 mm 2 m/S 618 mmHg 35%
    15:00 +21°C° 0 mm 2 m/S 617 mmHg 34%
    16:00 +20°C° 0 mm 2 m/S 617 mmHg 39%
    17:00 +19°C° 0 mm 1 m/S 616 mmHg 44%
    18:00 +16°C° 0 mm 1 m/S 615 mmHg 49%
    19:00 +15°C° 0 mm 1 m/S 615 mmHg 50%
    20:00 +15°C° 0 mm 1 m/S 615 mmHg 50%
    21:00 +14°C° 0 mm 1 m/S 615 mmHg 51%
    22:00 +14°C° 0 mm 1 m/S 615 mmHg 52%
    23:00 +14°C° 0 mm 1 m/S 615 mmHg 52%

    übermorgen, 19 September, Donnerstag

    Zeit Temperatur Niederschläge Wind Luftdruck Luftfeuchtigkeit
    00:00 +13°C° 0 mm 1 m/S 615 mmHg 53%
    01:00 +13°C° 0 mm 1 m/S 615 mmHg 52%
    02:00 +13°C° 0 mm 1 m/S 615 mmHg 51%
    03:00 +13°C° 0 mm 1 m/S 615 mmHg 50%
    04:00 +13°C° 0 mm 1 m/S 614 mmHg 50%
    05:00 +13°C° 0 mm 1 m/S 614 mmHg 50%
    06:00 +13°C° 0 mm 1 m/S 614 mmHg 50%
    07:00 +15°C° 0 mm 1 m/S 615 mmHg 46%
    08:00 +18°C° 0 mm 1 m/S 616 mmHg 41%
    09:00 +21°C° 0 mm 1 m/S 617 mmHg 37%
    10:00 +21°C° 0 mm 2 m/S 617 mmHg 35%
    11:00 +23°C° 0 mm 2 m/S 617 mmHg 32%
    12:00 +24°C° 0 mm 3 m/S 617 mmHg 30%
    13:00 +24°C° 0 mm 3 m/S 617 mmHg 29%
    14:00 +24°C° 0 mm 3 m/S 617 mmHg 28%
    15:00 +24°C° 0 mm 3 m/S 617 mmHg 28%
    16:00 +21°C° 0 mm 2 m/S 616 mmHg 35%
    17:00 +19°C° 0 mm 2 m/S 615 mmHg 42%
    18:00 +18°C° 0 mm 1 m/S 614 mmHg 49%
    19:00 +16°C° 0 mm 1 m/S 614 mmHg 53%
    20:00 +15°C° 0 mm 2 m/S 614 mmHg 57%
    21:00 +14°C° 0 mm 2 m/S 614 mmHg 61%
    22:00 +14°C° 0 mm 2 m/S 614 mmHg 61%
    23:00 +14°C° 0 mm 2 m/S 614 mmHg 61%

    20 September, Freitag

    Zeit Temperatur Niederschläge Wind Luftdruck Luftfeuchtigkeit
    00:00 +14°C° 0 mm 2 m/S 614 mmHg 60%
    01:00 +13°C° 0 mm 2 m/S 614 mmHg 60%
    02:00 +13°C° 0 mm 2 m/S 614 mmHg 59%
    03:00 +12°C° 0 mm 1 m/S 613 mmHg 58%
    04:00 +12°C° 0 mm 1 m/S 613 mmHg 58%
    05:00 +12°C° 0 mm 1 m/S 613 mmHg 58%
    06:00 +12°C° 0 mm 1 m/S 613 mmHg 59%
    07:00 +14°C° 0 mm 1 m/S 613 mmHg 53%
    08:00 +16°C° 0 mm 1 m/S 614 mmHg 47%
    09:00 +20°C° 0 mm 1 m/S 615 mmHg 41%
    10:00 +20°C° 0 mm 2 m/S 615 mmHg 37%
    11:00 +21°C° 0 mm 3 m/S 615 mmHg 33%
    12:00 +22°C° 0 mm 4 m/S 615 mmHg 29%
    13:00 +23°C° 0 mm 4 m/S 615 mmHg 28%
    14:00 +23°C° 0 mm 5 m/S 614 mmHg 28%
    15:00 +23°C° 0 mm 5 m/S 614 mmHg 27%
    16:00 +21°C° 0 mm 3 m/S 613 mmHg 33%
    17:00 +19°C° 0 mm 2 m/S 612 mmHg 39%
    18:00 +18°C° 0 mm 1 m/S 611 mmHg 45%
    19:00 +16°C° 0 mm 2 m/S 611 mmHg 52%
    20:00 +16°C° 0 mm 2 m/S 611 mmHg 58%
    21:00 +14°C° 0 mm 3 m/S 611 mmHg 64%
    22:00 +13°C° 0 mm 3 m/S 611 mmHg 68%
    23:00 +13°C° 0 mm 3 m/S 611 mmHg 72%

    21 September, Samstag

    Zeit Temperatur Niederschläge Wind Luftdruck Luftfeuchtigkeit
    00:00 +12°C° 0 mm 3 m/S 610 mmHg 76%
    01:00 +13°C° 0 mm 2 m/S 610 mmHg 77%
    02:00 +12°C° 0 mm 2 m/S 610 mmHg 79%
    03:00 +12°C° 0 mm 2 m/S 609 mmHg 80%
    04:00 +10°C° 0 mm 2 m/S 609 mmHg 80%
    05:00 +10°C° 0 mm 2 m/S 609 mmHg 80%
    06:00 +11°C° 0 mm 1 m/S 609 mmHg 80%
    07:00 +13°C° 0 mm 1 m/S 610 mmHg 71%
    08:00 +15°C° 0 mm 1 m/S 610 mmHg 62%
    09:00 +18°C° 0 mm 1 m/S 611 mmHg 54%
    10:00 +18°C° 0 mm 2 m/S 611 mmHg 48%
    11:00 +19°C° 0 mm 3 m/S 612 mmHg 43%
    12:00 +20°C° 0 mm 5 m/S 612 mmHg 37%
    13:00 +20°C° 0.1 mm 4 m/S 611 mmHg 38%
    14:00 +20°C° 0.1 mm 4 m/S 611 mmHg 38%
    15:00 +20°C° 0.1 mm 4 m/S 610 mmHg 39%
    16:00 +18°C° 0.1 mm 4 m/S 610 mmHg 51%
    17:00 +14°C° 0.1 mm 3 m/S 609 mmHg 63%
    18:00 +13°C° 0.1 mm 2 m/S 609 mmHg 74%
    19:00 +12°C° 0 mm 2 m/S 609 mmHg 77%
    20:00 +10°C° 0 mm 2 m/S 609 mmHg 79%
    21:00 +9°C° 0 mm 2 m/S 610 mmHg 82%
    22:00 +9°C° 0 mm 2 m/S 610 mmHg 83%
    23:00 +8°C° 0 mm 2 m/S 610 mmHg 84%

    22 September, Sonntag

    Zeit Temperatur Niederschläge Wind Luftdruck Luftfeuchtigkeit
    00:00 +7°C° 0 mm 2 m/S 610 mmHg 85%
    01:00 +7°C° 0 mm 2 m/S 611 mmHg 82%
    02:00 +7°C° 0 mm 2 m/S 611 mmHg 80%
    03:00 +6°C° 0 mm 2 m/S 611 mmHg 78%
    04:00 +5°C° 0 mm 2 m/S 611 mmHg 76%
    05:00 +4°C° 0 mm 2 m/S 612 mmHg 74%
    06:00 +3°C° 0 mm 2 m/S 612 mmHg 71%
    07:00 +5°C° 0 mm 2 m/S 613 mmHg 61%
    08:00 +7°C° 0 mm 2 m/S 614 mmHg 51%
    09:00 +8°C° 0 mm 2 m/S 615 mmHg 41%
    10:00 +9°C° 0 mm 2 m/S 616 mmHg 38%
    11:00 +12°C° 0 mm 2 m/S 616 mmHg 35%
    12:00 +13°C° 0 mm 2 m/S 616 mmHg 32%
    13:00 +13°C° 0 mm 2 m/S 616 mmHg 32%
    14:00 +13°C° 0 mm 2 m/S 616 mmHg 33%
    15:00 +14°C° 0 mm 2 m/S 616 mmHg 33%
    16:00 +12°C° 0 mm 2 m/S 616 mmHg 40%
    17:00 +9°C° 0 mm 2 m/S 615 mmHg 48%
    18:00 +7°C° 0 mm 2 m/S 614 mmHg 55%
    19:00 +6°C° 0 mm 2 m/S 615 mmHg 58%
    20:00 +5°C° 0 mm 2 m/S 615 mmHg 61%
    21:00 +4°C° 0 mm 2 m/S 615 mmHg 64%
    22:00 +4°C° 0 mm 2 m/S 615 mmHg 64%
    23:00 +3°C° 0 mm 2 m/S 615 mmHg 64%
    Mehr zeigen